Plovdiv, Bulgaria

3:27 PM EET on December 13, 2019 (GMT +0200)
Plovdiv

Weather History for LBPD - October, 2019

Change the Weather History Date:

Tuesday, October 15, 2019

  Actual Average (WUND) Record (WUND)
Temperature  
Mean Temperature 60 °F -  
Max Temperature 77 °F - - (-1)
Min Temperature 44 °F - - (-1)
Degree Days  
Heating Degree Days 4    
Growing Degree Days 10 (Base 50)    
Moisture  
Dew Point 46 °F    
Average Humidity 66    
Maximum Humidity 100    
Minimum Humidity 34    
Precipitation  
Precipitation 0.00 in - - ()
Sea Level Pressure  
Sea Level Pressure 30.10 in    
Wind  
Wind Speed 2 mph ()    
Max Wind Speed 7 mph    
Max Gust Speed -    
Visibility 6.2 miles    
Events      
Averages and records for this station are not official NWS values.
T = Trace of Precipitation, MM = Missing Value Source: Averaged Metar Reports

Daily Weather History Graph

Daily Weather History Graph

Search for Another Location

Airport or City:

Astronomy

Oct. 15, 2019 Rise Set
Actual Time 7:33 AM EEST 6:40 PM EEST
Civil Twilight 7:04 AM EEST 7:08 PM EEST
Nautical Twilight 6:32 AM EEST 7:40 PM EEST
Astronomical Twilight 5:59 AM EEST 8:12 PM EEST
Moon 7:49 PM EEST (10/15) 8:45 AM EEST (10/15)
Length of Visible Light 12h 03m
Length of Day
11h 07m
Full, 98% of the Moon is Illuminated
Oct 15
Full
Oct 21
Last Quarter
Oct 28
New
Nov 4
First Quarter
Nov 12
Full

Hourly Weather History & Observations

Time (EEST) Temp. Dew Point Humidity Pressure Visibility Wind Dir Wind Speed Gust Speed Precip Events Conditions
12:00 AM 51.8 °F 46.4 °F 82% 30.15 in 6.2 mi West 5.8 mph - N/A   Unknown
12:30 AM 50.0 °F 44.6 °F 82% 30.15 in 6.2 mi West 2.3 mph - N/A   Unknown
1:00 AM 53.6 °F 46.4 °F 77% 30.15 in 6.2 mi Calm Calm - N/A   Unknown
1:30 AM 53.6 °F 46.4 °F 77% 30.15 in 6.2 mi Calm Calm - N/A   Unknown
2:00 AM 51.8 °F 46.4 °F 82% 30.15 in 6.2 mi Calm Calm - N/A   Unknown
2:30 AM 51.8 °F 46.4 °F 82% 30.15 in 6.2 mi Calm Calm - N/A   Unknown
3:00 AM 48.2 °F 44.6 °F 87% 30.15 in 6.2 mi Calm Calm - N/A   Unknown
3:30 AM 48.2 °F 44.6 °F 87% 30.15 in 6.2 mi Calm Calm - N/A   Unknown
4:00 AM 50.0 °F 46.4 °F 87% 30.15 in 6.2 mi Calm Calm - N/A   Unknown
4:30 AM 48.2 °F 44.6 °F 87% 30.12 in 6.2 mi Calm Calm - N/A   Unknown
5:00 AM 46.4 °F 44.6 °F 93% 30.15 in 6.2 mi Calm Calm - N/A   Unknown
5:30 AM 46.4 °F 42.8 °F 87% 30.15 in 6.2 mi Calm Calm - N/A   Unknown
6:00 AM 48.2 °F 44.6 °F 87% 30.15 in 6.2 mi Calm Calm - N/A   Unknown
6:30 AM 46.4 °F 42.8 °F 87% 30.15 in 6.2 mi Calm Calm - N/A   Unknown
7:00 AM 44.6 °F 42.8 °F 93% 30.12 in 6.2 mi Calm Calm - N/A   Unknown
7:30 AM 44.6 °F 44.6 °F 100% 30.12 in 5.6 mi Calm Calm - N/A   Unknown
8:00 AM 44.6 °F 42.8 °F 93% 30.12 in 5.6 mi Calm Calm - N/A   Unknown
8:30 AM 46.4 °F 44.6 °F 93% 30.15 in 6.2 mi WNW 2.3 mph - N/A   Unknown
9:00 AM 48.2 °F 46.4 °F 93% 30.15 in 5.6 mi Variable 2.3 mph - N/A   Unknown
9:30 AM 51.8 °F 46.4 °F 82% 30.15 in 6.2 mi Variable 2.3 mph - N/A   Unknown
10:00 AM 55.4 °F 46.4 °F 72% 30.15 in 6.2 mi NW 4.6 mph - N/A   Unknown
11:00 AM 60.8 °F 44.6 °F 55% 30.12 in 6.2 mi NW 5.8 mph - N/A   Unknown
11:30 AM 64.4 °F 44.6 °F 49% 30.12 in 6.2 mi NW 4.6 mph - N/A   Unknown
12:00 PM 66.2 °F 44.6 °F 46% 30.12 in 6.2 mi NW 5.8 mph - N/A   Unknown
12:30 PM 68.0 °F 44.6 °F 43% 30.12 in 6.2 mi Variable 3.5 mph - N/A   Unknown
1:00 PM 69.8 °F 46.4 °F 43% 30.12 in 6.2 mi ENE 4.6 mph - N/A   Unknown
1:30 PM 71.6 °F 46.4 °F 41% 30.09 in 6.2 mi NNE 3.5 mph - N/A   Unknown
2:00 PM 75.2 °F 46.4 °F 36% 30.09 in 6.2 mi Variable 3.5 mph - N/A   Unknown
2:30 PM 75.2 °F 46.4 °F 36% 30.06 in 6.2 mi ESE 4.6 mph - N/A   Unknown
3:00 PM 77.0 °F 46.4 °F 34% 30.06 in 6.2 mi SE 5.8 mph - N/A   Unknown
3:30 PM 75.2 °F 46.4 °F 36% 30.06 in 6.2 mi ESE 5.8 mph - N/A   Unknown
4:00 PM 77.0 °F 48.2 °F 36% 30.04 in 6.2 mi ESE 4.6 mph - N/A   Unknown
4:30 PM 77.0 °F 48.2 °F 36% 30.04 in 6.2 mi East 3.5 mph - N/A   Unknown
5:00 PM 75.2 °F 48.2 °F 38% 30.04 in 6.2 mi East 5.8 mph - N/A   Unknown
5:30 PM 75.2 °F 48.2 °F 38% 30.04 in 6.2 mi ESE 6.9 mph - N/A   Unknown
6:00 PM 73.4 °F 50.0 °F 44% 30.04 in 6.2 mi East 6.9 mph - N/A   Unknown
6:30 PM 71.6 °F 48.2 °F 43% 30.04 in 6.2 mi ESE 5.8 mph - N/A   Unknown
7:00 PM 66.2 °F 48.2 °F 52% 30.04 in 6.2 mi South 4.6 mph - N/A   Unknown
7:30 PM 62.6 °F 50.0 °F 63% 30.04 in 6.2 mi South 5.8 mph - N/A   Unknown
8:00 PM 62.6 °F 50.0 °F 63% 30.04 in 6.2 mi SSE 5.8 mph - N/A   Unknown
8:30 PM 64.4 °F 50.0 °F 59% 30.04 in 6.2 mi SSE 5.8 mph - N/A   Unknown
9:00 PM 62.6 °F 48.2 °F 59% 30.06 in 6.2 mi South 3.5 mph - N/A   Unknown
9:30 PM 59.0 °F 46.4 °F 63% 30.06 in 6.2 mi Variable 2.3 mph - N/A   Unknown
10:00 PM 59.0 °F 48.2 °F 67% 30.06 in 6.2 mi East 3.5 mph - N/A   Unknown
10:30 PM 53.6 °F 44.6 °F 72% 30.06 in 6.2 mi West 3.5 mph - N/A   Unknown
11:00 PM 55.4 °F 46.4 °F 72% 30.09 in 6.2 mi WSW 3.5 mph - N/A   Unknown
11:30 PM 55.4 °F 44.6 °F 67% 30.09 in 6.2 mi Calm Calm - N/A   Unknown